FW5697 Weather Reports


time (UTC)temp
F
wind
direction
speed
knots
gust
knots
rain 1hr
in
rain 24hr
in
rain mn
in
humidity
%
barometer
mb
20260906220032 94 0 0.0 0.9 0.00 0.72 0.01 60 1009.3
20260906214541 96 0 0.0 0.9 0.00 0.72 0.01 54 1009.2
20260906213037 95 0 0.0 0.9 0.00 0.72 0.01 53 1009.1
20260906211536 94 0 0.0 1.7 0.00 0.72 0.01 56 1009.0
20260906210038 94 41 0.0 1.7 0.00 0.72 0.01 55 1008.7
20260906204536 94 0 0.0 3.5 0.00 0.72 0.01 58 1008.9
20260906203035 96 5 0.9 4.3 0.00 0.72 0.01 53 1009.0
20260906201558 95 0 0.0 1.7 0.00 0.72 0.01 55 1009.2
20260906200032 96 43 0.0 3.5 0.00 0.72 0.01 51 1009.6
20260906194534 96 223 1.7 2.6 0.00 0.72 0.01 51 1009.9
20260906193040 94 0 0.9 2.6 0.00 0.72 0.01 54 1010.1
20260906191534 94 0 0.0 1.7 0.00 0.72 0.01 54 1010.5
20260906190036 94 0 0.0 2.6 0.00 0.72 0.01 57 1010.8
20260906184536 93 0 0.0 2.6 0.00 0.72 0.01 55 1011.2
20260906183034 93 14 0.9 3.5 0.00 0.72 0.01 54 1011.5
20260906181544 92 5 0.0 1.7 0.00 0.72 0.01 59 1011.6
20260906180041 91 0 0.9 1.7 0.00 0.72 0.01 64 1011.7
20260906174535 91 0 0.0 2.6 0.00 0.72 0.01 63 1011.8
20260906173033 90 0 0.0 2.6 0.00 0.72 0.01 63 1011.9
20260906171534 89 0 0.9 4.3 0.00 0.72 0.01 69 1012.0
20260906170036 88 0 0.0 1.7 0.00 0.72 0.01 68 1012.0
20260906164533 88 0 0.9 2.6 0.00 0.72 0.01 67 1012.3
20260906163045 87 0 0.0 1.7 0.00 0.72 0.01 72 1012.5
20260906161536 87 0 0.0 2.6 0.00 0.72 0.01 72 1012.7
20260906160035 85 188 0.0 0.9 0.00 0.72 0.01 79 1012.8
20260906154537 84 11 0.0 3.5 0.00 0.72 0.01 79 1012.9
20260906153032 83 0 0.0 3.5 0.00 0.72 0.01 84 1013.1
20260906151537 81 31 0.9 3.5 0.00 0.72 0.01 86 1013.1
20260906150034 79 0 0.0 1.7 0.00 0.72 0.01 92 1013.0
20260906144538 77 0 0.0 0.0 0.00 0.72 0.01 93 1013.0
20260906143036 76 0 0.0 1.7 0.00 0.72 0.01 96 1012.9
20260906141538 75 0 0.0 1.7 0.00 0.72 0.01 97 1012.7
20260906140037 74 0 0.0 1.7 0.00 0.72 0.01 99 1012.9
20260906134538 73 0 0.0 0.9 0.00 0.72 0.01 99 1013.1
20260906133044 73 0 0.0 0.0 0.00 0.72 0.01 99 1013.1
20260906131535 72 0 0.0 0.0 0.00 0.72 0.01 99 1013.2
20260906130036 72 0 0.0 0.0 0.00 0.72 0.01 99 1013.1
20260906124536 71 0 0.0 0.0 0.00 0.72 0.01 99 1013.0
20260906123043 71 0 0.0 0.0 0.00 0.72 0.01 99 1012.7
20260906121544 70 0 0.0 0.0 0.00 0.72 0.01 99 1012.4
20260906120032 70 0 0.0 0.0 0.00 0.72 0.01 98 1012.4
20260906114538 70 0 0.0 0.9 0.00 0.72 0.01 98 1012.5
20260906113037 70 0 0.0 0.9 0.00 0.72 0.01 98 1012.4
20260906111533 70 0 0.0 0.0 0.00 0.72 0.01 98 1012.3
20260906110034 70 0 0.0 0.0 0.00 0.72 0.01 98 1012.3
20260906104536 70 0 0.0 0.9 0.00 0.72 0.01 98 1012.3
20260906103036 70 0 0.0 0.0 0.00 0.72 0.01 98 1012.1
20260906101535 70 0 0.0 0.0 0.00 0.72 0.01 98 1011.9
20260906100040 70 0 0.0 0.9 0.00 0.72 0.01 98 1011.9
20260906094535 70 0 0.0 0.0 0.00 0.72 0.01 98 1012.2
20260906093048 70 0 0.0 0.0 0.00 0.72 0.01 98 1012.0
20260906091534 70 92 0.0 0.9 0.00 0.72 0.01 98 1011.9
20260906090036 70 0 0.0 0.9 0.00 0.72 0.01 98 1011.8
20260906084533 70 0 0.0 0.0 0.00 0.72 0.01 98 1011.9
20260906083033 70 0 0.0 0.9 0.00 0.72 0.01 98 1011.9
20260906081549 70 0 0.0 0.0 0.00 0.72 0.01 98 1011.9
20260906080036 70 0 0.0 0.0 0.00 0.72 0.01 98 1011.9
20260906074536 70 0 0.0 0.0 0.00 0.72 0.01 98 1011.9
20260906073047 70 0 0.0 0.0 0.00 0.72 0.01 98 1011.9
20260906071536 70 0 0.0 0.9 0.00 0.72 0.01 98 1011.9
20260906070039 70 0 0.0 1.7 0.00 0.72 0.01 98 1011.9
20260906064534 70 0 0.0 0.0 0.00 0.72 0.01 98 1012.1
20260906063035 70 0 0.0 0.0 0.00 0.72 0.01 98 1012.3
20260906061534 70 0 0.0 0.9 0.01 0.72 0.01 98 1012.2
20260906060035 70 0 0.0 1.7 0.01 0.72 0.01 98 1012.3
20260906054533 70 0 0.0 0.0 0.01 0.72 0.01 98 1012.5
20260906053038 70 0 0.0 0.0 0.01 0.72 0.01 98 1012.7
20260906051534 70 0 0.0 0.0 0.00 0.71 0.00 98 1012.8
20260906050050 70 0 0.0 0.0 0.00 0.71 0.00 98 1013.0
20260906044535 70 0 0.0 0.9 0.00 0.71 0.00 98 1013.1
20260906043042 70 0 0.0 0.0 0.00 0.71 0.00 97 1012.8
20260906041535 70 0 0.0 0.0 0.00 0.71 0.00 97 1012.5
20260906040043 70 0 0.0 0.0 0.00 0.71 0.00 98 1012.4
20260906034535 70 34 0.0 1.7 0.00 0.71 0.71 98 1012.3
20260906033032 70 34 0.9 2.6 0.00 0.71 0.71 97 1012.2
20260906031537 70 0 0.0 1.7 0.00 0.71 0.71 97 1012.4
20260906030033 70 0 0.0 0.0 0.00 0.71 0.71 97 1012.6
20260906024536 70 0 0.0 0.9 0.00 0.71 0.71 97 1012.9
20260906023049 70 0 0.0 0.0 0.00 0.71 0.71 97 1012.9
20260906021535 70 0 0.0 0.0 0.00 0.71 0.71 97 1013.2
20260906020036 70 0 0.0 0.9 0.00 0.71 0.71 96 1013.1
20260906014543 70 0 0.0 0.9 0.01 0.71 0.71 96 1013.0
20260906013034 69 0 0.0 1.7 0.11 0.71 0.71 95 1013.1
20260906011544 69 5 0.0 2.6 0.51 0.71 0.71 95 1012.8
20260906010036 69 0 0.0 3.5 0.71 0.71 0.71 94 1012.2
20260906004535 69 193 0.9 3.5 0.70 0.70 0.70 94 1012.8
20260906003036 69 211 0.0 5.2 0.58 0.58 0.58 91 1012.6
20260906001534 72 38 4.3 19.1 0.18 0.18 0.18 81 1014.1
20260906000038 87 109 0.9 3.5 0.00 0.00 0.00 62 1013.0
20260905234545 88 65 0.0 3.5 0.00 0.00 0.00 70 1011.6
20260905233034 89 194 1.7 5.2 0.00 0.00 0.00 68 1010.3
20260905231535 90 227 0.9 5.2 0.00 0.00 0.00 66 1010.5
20260905230042 91 185 1.7 5.2 0.00 0.00 0.00 66 1010.8
20260905224536 91 208 1.7 6.1 0.00 0.00 0.00 65 1010.6
20260905223036 92 207 0.9 3.5 0.00 0.00 0.00 63 1010.6
20260905221533 93 219 0.9 5.2 0.00 0.00 0.00 59 1010.7